AirNav   Everest Fuels
 
 1217 users online  

29MN Wetenkamp Airport
Tintah, Minnesota, USA

GOING TO TINTAH?


FAA INFORMATION EFFECTIVE 15 JULY 2021

Location

FAA Identifier: 29MN
Lat/Long: 46-01-41.8550N 096-21-46.2340W
46-01.697583N 096-21.770567W
46.0282931,-96.3628428
(estimated)
Elevation: 990 ft. / 302 m (estimated)
Variation: 06E (1985)
From city: 2 miles NW of TINTAH, MN
Time zone: UTC -5 (UTC -6 during Standard Time)
Zip code: 56565

Airport Operations

Airport use: Private use. Permission required prior to landing
Activation date: 11/1978
Control tower: no
ARTCC: MINNEAPOLIS CENTER
FSS: PRINCETON FLIGHT SERVICE STATION
Attendance: UNATNDD
Wind indicator: yes
Segmented circle: no

Airport Communications

WX AWOS-3 at Y63 (16 nm E): 118.075 (218-685-6456)
WX AWOS-3 at BWP (16 nm NW): 127.875 (701-642-9800)
WX AWOS-3 at ETH (17 nm SW): 118.775 (320-563-4975)
WX AWOS-3 at FFM (18 nm NE): 110.4 (218-736-7216)

Nearby radio navigation aids

VOR radial/distance  VOR name  Freq  Var
FFMr204/17.9FERGUS FALLS VOR/DME110.4005E
MOXr324/32.3MORRIS VOR/DME109.6005E

Airport Services

Fuel available: 100LL

Runway Information

Runway 17/35

Dimensions: 3000 x 60 ft. / 914 x 18 m
Surface: turf
RUNWAY 17  RUNWAY 35
Traffic pattern: leftleft
Obstructions: none30 ft. trees, 850 ft. from runway

Airport Ownership and Management from official FAA records

Ownership: Privately-owned
Owner: DONALD T. WETENKAMP
5160- 290TH AVE
TINTAH, MN 56583
Phone 218-369-2422
Manager: DONALD T. WETENKAMP
5160- 290TH AVE
TINTAH, MN 56583
Phone 218-369-2422
OTHER:NORM AHRENS 5158 290TH AVE TINTAH, MN 56583 218-369-2114

Airport Operational Statistics

Aircraft based on the field: 1
Single engine airplanes: 1
    

Additional Remarks

FOR CD CTC MINNEAPOLIS ARTCC AT 651-463-5588.

Instrument Procedures

There are no published instrument procedures at 29MN.

Some nearby airports with instrument procedures:

Y63 - Elbow Lake Municipal - Pride of the Prairie Airport (16 nm E)
KBWP - Harry Stern Airport (16 nm NW)
KETH - Wheaton Municipal Airport (17 nm SW)
KFFM - Fergus Falls Municipal Airport-Einar Mickelson Field (18 nm NE)
KMOX - Morris Municipal Airport - Charlie Schmidt Field (32 nm SE)
 
Loc | Ops | Rwys | IFR | FBO | Links
Com | Nav | Svcs | Stats | Notes
Area around 29MN (Wetenkamp Airport)
 
Road maps at: MapQuest Bing Google
 
Aerial photo
No photo
 
Sectional chart

 
Airport distance calculator
Flying to Wetenkamp Airport? Find the distance to fly.

From to 29MN

Sunrise and sunset
Times for 28-Jul-2021
 Local
(UTC-5)
 Zulu
(UTC)
Morning civil twilight05:2910:29
Sunrise06:0411:04
Sunset21:0002:00
Evening civil twilight21:3502:35

Current date and time
Zulu (UTC)  28-Jul-2021 22:54:20
Local (UTC-5)  28-Jul-2021 17:54:20
 
METAR
KBWP 
16nm NW 
282235Z AUTO 33018G24KT 9SM FEW030 29/25 A2985 RMK AO2
KFFM 
17nm NE 
282235Z AUTO 33008KT 10SM CLR 29/23 A2984 RMK AO2
KETH 
21nm S 
282215Z AUTO 29009KT 10SM CLR 31/22 A2987 RMK AO2
TAF
KAXN 
41nm E 
281739Z 2818/2918 19018G29KT P6SM SCT250 FM282000 26014G24KT P6SM SCT250 FM282200 29013G21KT P6SM SCT250 FM290200 01011G19KT P6SM SCT250 FM291300 01008KT P6SM FEW250
NOTAMs
Click for the latest NOTAMs
NOTAMs are issued by the DoD/FAA and will open in a separate window not controlled by AirNav.

 

 
 

Would you like to see your business listed on this page?

 If your business provides an interesting product or service to pilots, flight crews, aircraft, or users of the Wetenkamp Airport, you should consider listing it here.  To start the listing process, click on the button below
 
Add a business
 

Other Pages about Wetenkamp Airport

Update a link
 
Copyright © AirNav, LLC. All rights reserved. Privacy Policy  Contact